COSMOS 2491 DEB, 57570

Orbit data source: Space-Track

COSMOS 2491 DEB, 57570 is space debris in LEO originally from a launch on Wed, 25 Dec 2013 UTC launched from the Plesetsk Missile And Space Complex (PKMTR). Debris objects in space refer to the collection of defunct objects orbiting the Earth. Examples of debris include non-operational satellites, rocket bodies, and fragments generated from explosions, collisions, or faulty payload assembly.

Loading next visibility...
Identifier
57570, 2013-076BH
Orbit
LEO
Country
Flag of CISCIS
Related business
Manufacturer
TsNIIKhM
Mission
Spacecraft
Bus & Motor
Unknown
Mass
Unknown
Launch date (UTC)
2013-12-25 (12 years ago)
Launch vehicle
Unknown
Launch site
Plesetsk Missile And Space Complex (PKMTR)
Object type
Payload
Rocket body
Debris
Shape & HBR
Unknown shape, 0.1 m
Radar Cross Section
Medium (>0.1 m² and <1 m²)

Expand to show TLE details & history
Last TLE update: 4 days ago

TLE from 4 days ago
0 COSMOS 2491 DEB
1 57570U 13076BH  26169.24793440  .00000878  00000-0  53956-2 0  9991
2 57570  82.4707 149.2147 0075741 245.5714 113.7456 12.53605219141977
Epoch: 2026-06-18T05:57Z
TLE epoch observation values (Epoch: 2026-06-18T05:57:01.532Z)
Latitude
-0.00004°
Longitude
153.46432°
Altitude
1,476.418 km
Speed
7.114 km/s
True Right ascension
09h 56m 51s
True Declination
0° 00' 00"
Sunlit
Object was in daylight at epoch
Visualization orbit readout
Latitude
Unknown
Longitude
Unknown
Altitude
Unknown
Speed
Unknown
Apparent Right ascension
Unknown
Apparent Declination
Unknown
Sunlit
N/A
Visualization observer readout
Local Sidereal Time
21:40:13
Azimuth
Unknown
Elevation
Unknown
Doppler factor
Unknown
Orbital elements
Apogee altitude
1,506.055 km
Perigee altitude
1,387.522 km
Semi-major axis
7,824.925 km
Eccentricity
0.00757
Inclination
82.4707°
RAAN
149.2147°
Arg. of periapsis
245.5714°
True anomaly
114.53701°
Mean anomaly
113.7456°
Eccentric anomaly
114.14161°
Mean motion
3.13562 °/min
Orbital period
114.81 mins
BSTAR
0.0053956
Loading maneuver chart data...
Computing Atmospheric mass density...
Loading historical data...
Loading historical data...
Loading historical data...
Loading historical data...
Loading historical data...
Loading historical data...
Loading historical data...

Documentation

Showing up to 5 results
|